Location: Huberhof
(49.2050°N, 7.4980°E)
Time: 01:22:07
(UTC+00:00)

USA 305 - Pass Details

Date: 29 October 2020
Orbit: 569 x 577 km, 54.0° (Epoch: 22 November)

Event Time Altitude Azimuth Distance (km) Brightness Sun altitude
Rises 17:49:17 0° 296° (WNW) 2,788 7.5 -16.2°
Reaches altitude 10° 17:51:34 10° 294° (WNW) 1,886 6.5 -16.5°
Maximum altitude 17:55:49 67° 213° (SSW) 625 3.1 -17.2°
Enters shadow 17:58:08 26° 136° (SE) 1,151 4.1 -17.6°
